Погода в Светлогорье

Россия / Приморский край     46°51′41″N   134°26′39″E
темп.,
°C
ветер,
м/с
пор.,
м/с
влажн.,
%
обл.,
%
осадки,
мм/ч
давл.,
гПа
погр.,
м
8 марта, пн
пн801:00−13ююз119792 0.2 102420
04:00−15з009891 0.2 102520
07:00−17ююз119990 0.0 102720
10:00−10ююз128878 0.0 1028228
13:00−5юз247695 0.0 1027809
16:00−4ююз358395 0.1 1025723
19:00−8ю249491 0.1 102578
22:00−11ююв229245 0.1 102433
9 марта, вт
вт901:00−12юв22920 0.0 102234
04:00−11ююв239128 0.0 101964
07:00−10ююв3119097 0.0 1015249
10:00−3ююз5138776 0.0 1012715
13:000юз71397100 1.2 10091055
16:000з5995100 2.9 10081026
19:00−3з3128395 0.3 1009632
22:00−6зсз6148376 0.4 1013832
10 марта, ср
ср1001:00−9зсз3138834 0.1 1015517
04:00−10зсз289223 0.1 1018248
07:00−11зсз259317 0.0 1022114
10:00−7зсз258625 0.0 1025392
13:00−3зсз24809 0.0 1025612
16:00−2з357713 0.0 1024711
19:00−5юз128585 0.0 102421
22:00−7ю239292 0.0 102565
11 марта, чт
чт1101:00−8ююв259296 0.0 1023137
04:00−10ю229197 0.0 102222
07:00−12ююз11890 0.0 102321
10:00−5з12820 0.0 1024209
13:00−1зсз36809 0.0 1025916
16:000сз36768 0.0 1026925
19:00−5сз12870 0.0 102721
22:00−8з11860 0.0 102921
12 марта, пт
пт1201:00−10юз01880 0.0 103021
04:00−11ю11890 0.0 103021
07:00−12вюв11910 0.0 103221
10:00−6ююз11790 0.0 1032191
13:00−1ююз22760 0.0 1031502
16:00−1ююз23829 0.0 1030477
19:00−5ююз22940 0.0 102923
22:00−7ю22940 0.0 103022